Wind_Speed
46 46 45 45 44 44 43 43 43 43 43 43 43 44 45 45 45 45 46 46 47 47 46 47 47 47 48 47 48 48 48 48 48 49 49 49 49 49
46 46 46 45 45 44 44 44 44 44 43 43 44 44 45 45 45 45 47 47 47 47 47 47 47 48 48 48 48 48 49 49 49 50 49 49 50 50
46 45 45 45 45 45 44 44 44 44 44 44 44 44 45 45 46 46 46 47 48 48 48 49 49 49 49 50 50 49 50 50 50 50 50 51 51 51
46 46 45 45 45 45 45 45 45 45 44 44 44 44 45 46 46 46 47 48 48 48 49 49 50 49 49 50 50 51 50 50 51 51 51 51 52 53
47 47 46 46 45 45 45 44 45 45 44 44 44 45 46 46 47 46 47 47 48 49 49 49 49 48 49 50 51 51 51 50 50 50 51 51 52 52
47 47 46 46 45 45 45 45 44 44 44 44 44 45 45 46 46 46 46 47 47 48 48 48 48 48 49 50 49 50 50 50 49 49 50 50 51 51
46 46 46 46 45 45 45 45 44 44 44 44 44 45 45 46 47 46 46 46 46 47 47 48 48 49 49 49 48 48 48 49 49 50 50 50 50 50
45 45 45 45 45 45 44 44 45 45 44 44 44 45 45 46 46 46 46 46 46 46 47 46 47 47 47 48 48 48 48 48 49 49 49 49 50 50
45 45 44 44 44 44 44 45 45 45 45 45 45 45 45 45 46 46 45 45 45 45 46 45 46 46 46 46 47 48 49 49 49 49 48 48 49 49
43 43 44 44 44 44 45 45 45 45 45 45 45 45 45 44 44 44 44 44 44 44 45 45 45 45 45 46 47 48 48 49 49 50 49 48 48 49
42 42 42 43 44 45 45 45 45 45 45 45 44 44 44 43 43 43 43 43 43 43 44 44 44 45 45 45 46 47 48 49 49 49 50 49 49 49
41 42 42 43 43 44 44 44 44 44 44 44 44 43 43 43 42 42 42 43 43 43 44 44 44 45 45 45 46 46 47 48 48 48 48 48 48 49
39 39 40 40 42 42 43 43 43 43 43 43 43 43 42 42 42 42 42 43 43 43 44 45 45 46 46 45 45 46 46 47 47 47 48 48 48 48
37 37 37 37 38 39 40 41 41 42 42 42 42 42 42 42 42 42 43 43 43 43 44 44 45 46 46 46 45 45 46 47 47 47 47 47 47 47
36 36 36 37 37 37 38 38 40 41 41 42 42 42 42 43 43 43 42 43 43 44 44 45 45 45 46 45 45 45 45 46 46 46 45 45 46 46
35 35 36 36 37 38 38 38 39 39 40 41 41 41 41 41 42 42 42 43 43 44 44 44 44 44 44 44 44 44 44 44 44 45 45 45 45 46
34 35 35 36 37 37 38 38 39 39 39 39 39 40 40 41 41 42 43 44 44 44 44 44 44 43 43 44 44 44 44 44 44 45 45 44 45 45
35 35 35 36 36 36 37 38 38 38 38 38 38 39 40 40 41 42 43 43 43 43 42 43 43 44 44 44 45 45 45 45 45 45 45 44 44 45
35 35 35 36 36 36 36 37 37 38 38 38 38 39 40 40 41 41 41 41 42 42 42 42 43 43 43 43 44 45 45 44 44 44 45 45 45 45
35 35 36 36 37 36 36 36 36 36 37 37 38 39 39 40 40 40 40 40 40 41 41 42 43 43 43 43 43 44 45 44 45 45 45 46 45 45
35 35 36 36 36 36 36 36 35 35 36 36 37 38 39 39 39 39 40 40 41 41 41 41 42 43 44 44 44 44 45 45 46 45 45 44 44 43
35 36 36 36 36 36 36 36 35 35 36 36 37 38 39 39 39 40 40 41 41 41 41 41 42 43 43 43 43 43 43 43 43 44 43 43 41 41
36 36 36 36 36 36 36 36 36 36 36 37 37 38 38 39 39 40 40 40 41 41 41 41 41 41 41 41 40 40 40 39 40 40 40 40 40 40
Wind_Direction
256 256 255 257 258 258 259 260 261 261 262 264 264 265 265 266 267 267 267 267 268 268 269 269 269 268 269 269 269 269 269 269 269 269 269 269 268 268
254 254 255 256 258 259 260 260 262 262 262 263 265 266 266 267 267 268 268 268 268 269 270 270 269 268 269 269 269 270 269 269 268 268 268 268 268 268
254 255 256 257 257 259 260 260 261 262 263 264 265 265 267 267 266 267 269 268 269 269 269 269 269 269 269 269 268 269 270 269 268 267 267 268 268 269
254 255 256 257 257 259 260 261 262 263 264 264 265 265 266 267 267 269 269 269 269 269 269 269 270 269 269 269 268 269 269 269 268 268 268 268 269 269
254 255 256 256 258 259 260 261 262 263 264 265 265 266 267 267 267 268 269 269 269 270 271 271 270 270 269 268 268 268 268 268 269 269 269 269 269 270
253 254 255 255 257 258 259 260 261 263 264 266 267 267 268 268 268 269 269 270 270 271 272 272 270 269 269 269 269 269 269 269 269 270 270 270 270 270
252 253 254 255 256 257 259 259 260 262 264 266 267 268 268 268 268 269 270 271 271 272 272 271 270 269 269 270 270 269 269 268 269 271 271 271 270 270
252 254 255 255 256 257 258 259 261 262 263 265 266 267 268 269 268 270 272 273 272 272 271 271 270 270 270 270 269 269 269 270 270 272 272 271 270 270
252 253 254 255 256 257 259 260 261 263 264 265 266 268 269 269 270 271 272 272 271 271 270 270 270 270 270 269 270 270 270 271 271 272 272 272 271 270
253 254 254 254 256 258 259 260 262 264 264 265 266 268 269 270 271 271 272 272 271 270 270 270 270 270 270 270 271 271 272 272 271 272 272 272 271 271
253 254 254 255 256 258 259 260 261 262 264 265 266 267 268 271 272 272 272 271 270 270 270 270 270 270 270 271 272 273 273 273 272 272 273 273 273 273
252 254 255 257 258 258 259 260 261 262 263 265 265 267 269 271 271 272 272 272 271 271 271 271 272 272 272 272 272 273 274 274 273 273 274 274 274 274
253 255 256 257 257 258 258 259 261 262 263 264 266 267 268 269 271 272 273 273 272 272 272 272 272 272 273 272 272 273 274 275 274 274 273 274 274 275
254 255 257 257 257 258 259 259 260 262 263 265 266 267 267 268 270 271 272 273 273 273 273 273 273 274 274 274 273 274 275 275 275 274 274 274 275 275
254 254 255 256 257 258 259 261 262 263 264 265 267 268 268 269 269 271 272 273 274 274 274 274 274 275 275 274 274 275 275 276 276 276 275 275 275 275
253 254 256 257 258 259 261 262 264 265 265 266 267 268 268 269 270 271 272 273 274 274 274 275 274 275 275 275 275 276 276 277 276 276 276 276 276 276
255 256 258 258 259 260 261 262 264 265 266 267 267 268 269 270 271 272 273 274 274 274 274 274 274 275 275 275 276 276 276 277 277 276 275 276 277 278
258 259 259 261 262 262 263 264 264 265 266 267 268 269 270 271 273 273 274 274 274 274 274 273 273 274 274 275 276 276 277 277 277 276 276 276 277 278
258 260 260 262 263 264 265 264 265 266 267 268 269 271 272 273 274 274 274 274 273 273 273 273 274 274 275 276 277 277 277 277 277 277 276 276 277 277
259 260 262 262 263 265 265 265 265 266 268 269 270 271 272 272 273 274 274 273 274 274 274 275 276 276 277 277 277 276 277 277 277 277 276 276 276 277
259 260 262 263 264 265 266 266 267 268 269 271 272 272 273 273 274 274 274 274 275 275 276 277 278 279 279 279 278 277 277 277 277 277 276 275 275 276
260 261 263 264 265 266 267 267 268 269 270 272 273 273 273 273 273 274 274 275 276 276 277 278 279 280 281 280 280 278 277 277 277 277 277 276 276 276
262 263 264 264 265 266 266 267 268 269 271 273 274 274 274 274 274 275 275 276 277 277 278 280 281 282 281 281 280 279 278 277 277 278 278 278 278 278
Height
5691 5693 5695 5697 5699 5701 5703 5704 5706 5707 5709 5709 5709 5709 5709 5710 5710 5710 5709 5709 5709 5709 5708 5708 5708 5707 5707 5706 5705 5705 5705 5704 5703 5703 5702 5702 5702 5701
5679 5681 5683 5685 5687 5689 5691 5693 5694 5695 5697 5698 5698 5698 5698 5697 5697 5697 5697 5697 5697 5696 5696 5696 5695 5694 5694 5693 5692 5692 5691 5691 5690 5690 5689 5688 5688 5688
5667 5669 5672 5673 5676 5677 5679 5680 5682 5683 5684 5686 5686 5686 5686 5685 5685 5685 5684 5684 5684 5683 5683 5682 5682 5681 5681 5680 5679 5678 5678 5677 5676 5676 5676 5675 5675 5675
5655 5657 5660 5662 5664 5665 5667 5668 5669 5670 5672 5673 5673 5673 5673 5673 5672 5672 5671 5671 5671 5670 5669 5669 5668 5668 5667 5666 5665 5664 5664 5663 5662 5662 5662 5662 5662 5661
5643 5645 5648 5650 5652 5653 5655 5656 5657 5658 5659 5660 5660 5660 5661 5660 5660 5659 5659 5658 5657 5657 5656 5655 5655 5654 5653 5652 5651 5651 5650 5649 5649 5648 5647 5647 5647 5646
5630 5633 5635 5637 5639 5641 5642 5643 5645 5646 5646 5647 5648 5648 5648 5647 5647 5647 5646 5645 5645 5644 5643 5642 5641 5640 5639 5639 5638 5637 5636 5635 5634 5634 5633 5633 5633 5632
5618 5620 5622 5625 5626 5628 5630 5631 5632 5633 5634 5635 5635 5635 5635 5635 5635 5634 5633 5633 5632 5630 5630 5629 5628 5627 5626 5625 5624 5623 5622 5621 5621 5621 5620 5619 5619 5618
5605 5607 5610 5612 5614 5616 5617 5619 5620 5621 5622 5622 5623 5623 5623 5622 5622 5621 5620 5620 5620 5618 5616 5615 5614 5614 5613 5612 5611 5610 5609 5608 5608 5607 5606 5605 5604 5604
5593 5595 5597 5599 5601 5603 5605 5606 5607 5608 5609 5610 5610 5610 5610 5610 5609 5609 5607 5606 5606 5604 5603 5603 5601 5601 5600 5599 5598 5597 5596 5595 5594 5594 5593 5592 5591 5590
5581 5583 5585 5587 5589 5590 5592 5594 5595 5596 5596 5597 5597 5597 5596 5595 5595 5595 5594 5593 5593 5591 5590 5591 5589 5589 5588 5586 5585 5584 5583 5582 5581 5580 5579 5578 5577 5576
5569 5571 5573 5575 5577 5578 5580 5581 5583 5583 5583 5583 5584 5584 5583 5582 5581 5581 5580 5580 5580 5580 5578 5577 5577 5576 5575 5574 5573 5571 5569 5568 5567 5566 5565 5564 5563 5562
5557 5559 5561 5562 5564 5565 5566 5568 5569 5570 5570 5571 5571 5571 5570 5569 5569 5568 5567 5567 5567 5567 5566 5565 5564 5563 5563 5563 5560 5558 5556 5555 5554 5553 5552 5550 5549 5548
5546 5548 5549 5550 5551 5552 5553 5555 5556 5557 5557 5558 5558 5558 5558 5557 5556 5556 5555 5554 5554 5554 5553 5552 5551 5550 5549 5549 5548 5546 5544 5542 5541 5539 5538 5537 5536 5534
5535 5536 5537 5538 5539 5540 5541 5542 5543 5544 5545 5545 5546 5546 5546 5545 5544 5544 5543 5542 5541 5541 5540 5538 5537 5536 5535 5535 5535 5533 5531 5529 5528 5526 5525 5524 5522 5521
5523 5525 5526 5527 5528 5529 5529 5530 5531 5531 5532 5533 5533 5533 5533 5533 5532 5531 5530 5529 5528 5528 5526 5525 5524 5523 5522 5521 5521 5520 5518 5516 5514 5513 5512 5510 5509 5507
5513 5514 5515 5516 5517 5518 5519 5519 5519 5519 5519 5520 5520 5521 5520 5520 5519 5519 5518 5517 5516 5515 5513 5512 5511 5510 5509 5508 5507 5506 5504 5503 5502 5499 5498 5497 5495 5494
5502 5503 5504 5505 5506 5507 5507 5507 5508 5508 5508 5508 5508 5508 5508 5507 5507 5506 5505 5504 5503 5502 5501 5500 5498 5497 5496 5495 5494 5493 5491 5490 5488 5487 5486 5485 5483 5480
5492 5493 5494 5495 5495 5496 5496 5496 5496 5496 5496 5496 5496 5496 5495 5495 5494 5493 5492 5491 5490 5489 5488 5487 5486 5484 5483 5482 5481 5479 5478 5476 5475 5473 5472 5471 5470 5467
5481 5482 5483 5484 5484 5484 5484 5485 5485 5485 5484 5484 5484 5484 5483 5482 5482 5481 5479 5478 5477 5477 5476 5474 5473 5471 5470 5469 5468 5465 5464 5463 5461 5460 5459 5458 5457 5454
5470 5471 5472 5473 5473 5473 5473 5473 5473 5473 5473 5473 5472 5472 5471 5470 5469 5469 5467 5466 5465 5464 5463 5462 5460 5459 5458 5457 5455 5452 5450 5449 5448 5447 5445 5444 5442 5440
5459 5460 5461 5461 5462 5462 5462 5462 5462 5462 5461 5461 5460 5460 5459 5458 5457 5456 5455 5454 5453 5452 5450 5449 5447 5445 5443 5442 5441 5439 5436 5434 5433 5432 5431 5430 5429 5427
5449 5449 5450 5450 5450 5451 5451 5451 5451 5451 5450 5450 5449 5448 5447 5446 5445 5444 5443 5442 5441 5439 5438 5436 5434 5432 5430 5428 5427 5425 5423 5421 5419 5417 5416 5415 5414 5414
5437 5438 5438 5439 5439 5439 5439 5439 5439 5439 5439 5438 5437 5436 5435 5434 5433 5432 5431 5429 5428 5427 5425 5423 5421 5419 5417 5415 5414 5412 5411 5409 5407 5405 5404 5402 5401 5400